Current Version              Previous Version:    01  02  03  04  05  06  07  08  09  10  11  12  13  14  15  16  17  18  19  20  21  22  23  24  25  26  27  28  29  30  
   31  32  33  34  35  36  37  38  39  40  41  42  43  44  45  46  47  48  49  50  51  52  53  54  55  56  57  58  59  60  

[Printable]
823
ASUS44 KFWD 230510
RWRTX
NORTH TEXAS HOURLY WEATHER ROUNDUP
NATIONAL WEATHER SERVICE FORT WORTH TX
1100 PM CST SAT NOV 22 2014

NOTE: "FAIR" INDICATES FEW OR NO CLOUDS BELOW 12,000 FEET WITH NO
SIGNIFICANT WEATHER AND/OR OBSTRUCTIONS TO VISIBILITY.

TXZ118-119-230600-
DALLAS/FORT WORTH METROPLEX

CITY           SKY/WX    TMP DP  RH WIND       PRES   REMARKS
DFW AIRPORT    CLOUDY    54  54 100 SE13      29.70F
DALLAS LOVE    CLOUDY    57  56  96 S7        29.74F
FTW MEACHAM    CLOUDY    58  54  86 E7        29.69F
DAL-EXECUTIVE  CLOUDY    58  55  90 SE8       29.73F
FTW-ALLIANCE   CLOUDY    57  55  93 SE12      29.69F
FTW-SPINKS     MOCLDY    57  54  90 SE9       29.70F
ARLINGTON      CLOUDY    57  53  86 E13       29.70F
GRAND PRAIRIE  CLOUDY    56  56 100 SE6       29.75F
ADDISON        CLOUDY    58  58 100 S3        29.75F
MESQUITE       CLOUDY    59  58  97 SW5       29.78R
LANCASTER      CLOUDY    57  55  92 S5        29.76S
$$

TXZ091>094-102>105-117-120-121-131>134-230600-
NORTH CENTRAL TEXAS

CITY           SKY/WX    TMP DP  RH WIND       PRES   REMARKS
SHRMAN/DENISON CLOUDY    60  59  98 SE14      29.73S
GAINESVILLE    CLOUDY    57  57  98 S13       29.73S FOG
BOWIE          MOCLDY    54  53  98 SE3       29.69F
BRIDGEPORT     CLOUDY    55  55 100 CALM      29.71F
DECATUR        CLOUDY    55  54  95 E6        29.69F
DENTON         CLOUDY    57  56  96 SE9       29.71F
MCKINNEY       CLOUDY    57  57 100 S8        29.75S FOG
GREENVILLE     CLOUDY    61  59  94 S7        29.75R
ROCKWALL       CLOUDY    59  59 100 S8G16     29.74R FOG
TERRELL        CLOUDY    62  59  90 S8        29.75F
WAXAHACHIE     CLOUDY    56  56 100 SE3       29.75F
CLEBURNE       MOCLDY    57  57 100 SE9       29.70F
GRANBURY       MOCLDY    59  54  84 SW8       29.67F
$$

TXZ083>090-098>101-113>116-127>130-139>142-154-155-230600-
WESTERN NORTH TEXAS

CITY           SKY/WX    TMP DP  RH WIND       PRES   REMARKS
WICHITA FALLS  FOG       51  50  96 CALM      29.69F VSB 1/4
WF-KICKAPOO    FOG       49  49 100 CALM      29.71F VSB 1/4
VERNON         CLEAR     50  48  93 S6        29.69F
ABILENE        CLEAR     53  51  93 SW8       29.74F
ABILENE-DYESS  CLEAR     53  50  88 S9        29.72F
BRECKENRIDGE   PTCLDY    55  54  97 SW7       29.72R
GRAHAM         MOCLDY    54  54 100 S3        29.67F
MINERAL WELLS  CLOUDY   N/A N/A N/A SE5       29.69R
STEPHENVILLE   PTCLDY    55  52  92 S9        29.73R
COMANCHE       PTCLDY    53  53 100 SW6       29.76R
BROWNWOOD      CLOUDY    54  54 100 S3        29.77F
COLEMAN        PTCLDY    54  54 100 S6        29.77S
BRADY          CLEAR     54  52  94 CALM      29.75F
$$

TXZ143>147-156>162-174-175-230600-
CENTRAL TEXAS

CITY           SKY/WX    TMP DP  RH WIND       PRES   REMARKS
WACO           LGT RAIN  57  56  96 E5        29.75F
WACO-TSTC      LGT RAIN  57  57 100 CALM      29.76F
WACO-MCGREGOR  CLOUDY    57  52  82 SE12      29.77F
HILLSBORO      CLOUDY    58  55  91 E7        29.74F
CORSICANA      LGT RAIN  61  59  93 CALM      29.76F FOG
MEXIA          RAIN      59  58  97 N6        29.77F
HEARNE         RAIN      60  59  97 CALM      29.79R
CAMERON        HVY RAIN  60  59  97 N7        29.78F
TEMPLE         CLOUDY    57  52  82 NE5       29.76F
KILLEEN        CLOUDY    57  55  94 E7        29.72F FOG
KILLEEN-SKYLRK CLOUDY    57  52  82 E5        29.75F
FORT HOOD      LGT RAIN  58  55  90 E6        29.74F
GATESVILLE     CLOUDY    55  55 100 SE6       29.75F
HAMILTON       MOCLDY    55  55 100 SE20G25   29.75
LAMPASAS       CLOUDY    55  55  97 SE5       29.73F
$$

TXZ095>097-106>112-122>126-135>138-148>153-164>167-230600-
EAST TEXAS

CITY           SKY/WX    TMP DP  RH WIND       PRES   REMARKS
PARIS          CLOUDY    61  57  88 SE16      29.74F
SULPHUR SPRNGS LGT RAIN  61  60  97 SE10      29.75F
MOUNT PLEASANT CLOUDY    61  60  99 E6        29.82F
MINEOLA        CLOUDY    59  59 100 SE6       29.74F
TYLER          RAIN      61  59  93 SE7       29.78F
LONGVIEW       HVY RAIN  62  59  90 W6        29.79S FOG
MARSHALL       CLOUDY    58  56  92 CALM      29.81F
ATHENS         RAIN      57  57 100 CALM      29.79R
PALESTINE      DRIZZLE   60  60 100 CALM      29.78F
JACKSONVILLE   HVY RAIN  62  60  95 NW6       29.82S
HENDERSON      DRIZZLE   61  61 100 CALM      29.81R
NACOGDOCHES    CLOUDY    63  61  94 SE6       29.80S
LUFKIN         CLOUDY    68  63  84 SE7       29.78F
$$

SUPPLEMENTAL OBSERVATIONS (CENTRAL)

CITY           SKY/WX    TMP DP  RH WIND       PRES   REMARKS
CADDO GRASSLND   N/A     61  57  88 S6          N/A
PAT MAYSE LAKE   N/A     61  59  94 SE12        N/A
GREENVILLE       N/A     61  57  88 S7          N/A
CEDAR HILL       N/A     55  52  88 SE5         N/A
PALESTINE        N/A     61  59  94 SE3         N/A
MCGREGOR         N/A     57  54  88 E7          N/A
TEMPLE           N/A     57  54  88 N3G21       N/A
$$

SUPPLEMENTAL OBSERVATIONS (WEST)

CITY           SKY/WX    TMP DP  RH WIND       PRES   REMARKS
POSSUM KINGDOM   N/A     54  50  87 S1          N/A
LBJ GRASSLAND    N/A     55  50  82 SE7         N/A
GRANBURY         N/A     57  52  82 W13G23      N/A
HAMBY            N/A     52  48  87 S7          N/A
IVIE RESERVOIR   N/A     54  50  87 SE2         N/A
COLORADO BEND    N/A     55  52  88 SE5         N/A
$$

SUPPLEMENTAL OBSERVATIONS (EAST)

CITY           SKY/WX    TMP DP  RH WIND       PRES   REMARKS
CLARKSVILLE      N/A     61  59  94 SE16G23     N/A
TEXARKANA        N/A     61  57  88 SE5         N/A
LINDEN           N/A     61  59  94 E6          N/A
GILMER           N/A     61  59  94 NW2         N/A
HENDERSON        N/A     61  57  88 NW7         N/A
LUFKIN           N/A     64  63  94 MISG        N/A
S SABINE NF      N/A     63  59  88 S2G10       N/A
$$

SUPPLEMENTAL OBSERVATIONS ARE A COLLECTION OF AUTOMATED INSTRUMENTS
THAT ARE MAINTAINED BY A VARIETY OF FEDERAL AND STATE AGENCIES.
CERTAIN ELEMENTS...SUCH AS HUMIDITY VALUES AND SUSTAINED WIND
SPEEDS...MAY BE APPROXIMATED.